Location: Asheville, NC
(35.6000°N, 82.5500°W)
Time: 17:32:56
(UTC-04:00)

CUTE 1.7 + AOD 2 - Pass Details

Date: 08 January 2018
Orbit: 595 x 612 km, 97.5° (Epoch: 20 July)

Event Time Altitude Azimuth Distance (km) Brightness Sun altitude
Rises 19:33:18 0° 197° (SSW) 2,857 ? -23.7°
Reaches altitude 10° 19:35:51 10° 212° (SSW) 1,959 ? -24.2°
Maximum altitude 19:39:14 23° 265° (W) 1,315 ? -24.9°
Drops below altitude 10° 19:42:38 10° 318° (NW) 1,969 ? -25.6°
Sets 19:45:13 0° 333° (NNW) 2,877 ? -26.1°
